| time (UTC) | temp F | wind direction | speed MPH | gust MPH | rain 1hr in | rain 24hr in | rain mn in | humidity % | barometer mb |
| 20260902105735 | 76 | 269 | 8.0 | 11.0 | 0.00 | 0.00 | 0.00 | ||
| 20260902105327 | 77 | 266 | 9.0 | 13.0 | 0.00 | 0.00 | 0.00 | ||
| 20260902104924 | 77 | 238 | 5.0 | 7.0 | 0.00 | 0.00 | 0.00 | ||
| 20260902104523 | 77 | 214 | 8.0 | 12.0 | 0.00 | 0.00 | 0.00 | ||
| 20260902104122 | 77 | 220 | 6.0 | 10.0 | 0.00 | 0.00 | 0.00 | ||
| 20260902103720 | 77 | 262 | 6.0 | 10.0 | 0.00 | 0.00 | 0.00 | ||
| 20260902103319 | 77 | 264 | 5.0 | 10.0 | 0.00 | 0.00 | 0.00 | ||
| 20260902102916 | 76 | 243 | 4.0 | 7.0 | 0.00 | 0.00 | 0.00 | ||
| 20260902102515 | 75 | 268 | 4.0 | 6.0 | 0.00 | 0.00 | 0.00 | ||
| 20260902102114 | 74 | 255 | 6.0 | 10.0 | 0.00 | 0.00 | 0.00 | ||
| 20260902101712 | 74 | 266 | 7.0 | 10.0 | 0.00 | 0.00 | 0.00 | ||
| 20260902101303 | 75 | 277 | 8.0 | 13.0 | 0.00 | 0.00 | 0.00 | ||
| 20260902100901 | 75 | 282 | 7.0 | 12.0 | 0.00 | 0.00 | 0.00 | ||
| 20260902100500 | 75 | 275 | 6.0 | 8.0 | 0.00 | 0.00 | 0.00 | ||
| 20260902100059 | 74 | 244 | 6.0 | 10.0 | 0.00 | 0.00 | 0.00 | ||
| 20260902095656 | 74 | 270 | 8.0 | 10.0 | 0.00 | 0.00 | 0.00 | ||
| 20260902095255 | 74 | 257 | 6.0 | 10.0 | 0.00 | 0.00 | 0.00 | ||
| 20260902094853 | 75 | 241 | 6.0 | 9.0 | 0.00 | 0.00 | 0.00 | ||
| 20260902094452 | 74 | 236 | 6.0 | 9.0 | 0.00 | 0.00 | 0.00 | ||
| 20260902094050 | 74 | 240 | 6.0 | 10.0 | 0.00 | 0.00 | 0.00 | ||
| 20260902093648 | 75 | 202 | 8.0 | 11.0 | 0.00 | 0.00 | 0.00 | ||
| 20260902093240 | 75 | 225 | 8.0 | 14.0 | 0.00 | 0.00 | 0.00 | ||
| 20260902092839 | 75 | 203 | 6.0 | 11.0 | 0.00 | 0.00 | 0.00 | ||
| 20260902092438 | 75 | 219 | 7.0 | 12.0 | 0.00 | 0.00 | 0.00 | ||
| 20260902092035 | 75 | 222 | 5.0 | 9.0 | 0.00 | 0.00 | 0.00 | ||
| 20260902091634 | 74 | 269 | 5.0 | 9.0 | 0.00 | 0.00 | 0.00 | ||
| 20260902091233 | 75 | 247 | 6.0 | 10.0 | 0.00 | 0.00 | 0.00 | ||
| 20260902090831 | 74 | 262 | 5.0 | 9.0 | 0.00 | 0.00 | 0.00 | ||
| 20260902090428 | 74 | 254 | 8.0 | 11.0 | 0.00 | 0.00 | 0.00 | ||
| 20260902090027 | 74 | 232 | 5.0 | 7.0 | 0.00 | 0.00 | 0.00 | ||
| 20260902085625 | 75 | 229 | 7.0 | 10.0 | 0.00 | 0.00 | 0.00 | ||
| 20260902085216 | 75 | 218 | 6.0 | 10.0 | 0.00 | 0.00 | 0.00 | ||
| 20260902084813 | 75 | 196 | 6.0 | 10.0 | 0.00 | 0.00 | 0.00 | ||
| 20260902084412 | 75 | 178 | 6.0 | 9.0 | 0.00 | 0.00 | 0.00 | ||
| 20260902084011 | 75 | 172 | 3.0 | 4.0 | 0.00 | 0.00 | 0.00 | ||
| 20260902083610 | 74 | 180 | 3.0 | 7.0 | 0.00 | 0.00 | 0.00 | ||
| 20260902083208 | 75 | 180 | 4.0 | 6.0 | 0.00 | 0.00 | 0.00 | ||
| 20260902082806 | 75 | 157 | 2.0 | 8.0 | 0.00 | 0.00 | 0.00 | ||
| 20260902082405 | 74 | 157 | 2.0 | 4.0 | 0.00 | 0.00 | 0.00 | ||
| 20260902082003 | 74 | 157 | 2.0 | 4.0 | 0.00 | 0.00 | 0.00 | ||
| 20260902081601 | 74 | 157 | 2.0 | 3.0 | 0.00 | 0.00 | 0.00 | ||
| 20260902081152 | 74 | 157 | 3.0 | 5.0 | 0.00 | 0.00 | 0.00 | ||
| 20260902080750 | 74 | 157 | 3.0 | 5.0 | 0.00 | 0.00 | 0.00 | ||
| 20260902080349 | 73 | 157 | 2.0 | 5.0 | 0.00 | 0.00 | 0.00 | ||
| 20260902075948 | 73 | 157 | 3.0 | 5.0 | 0.00 | 0.00 | 0.00 | ||
| 20260902075628 | 72 | 157 | 3.0 | 6.0 | 0.00 | 0.00 | 0.00 | ||
| 20260902075545 | 72 | 157 | 3.0 | 6.0 | 0.00 | 0.00 | 0.00 | ||
| 20260902075144 | 72 | 144 | 5.0 | 8.0 | 0.00 | 0.00 | 0.00 | ||
| 20260902074742 | 71 | 135 | 4.0 | 6.0 | 0.00 | 0.00 | 0.00 | ||
| 20260902074342 | 71 | 142 | 5.0 | 8.0 | 0.00 | 0.00 | 0.00 | ||
| 20260902073939 | 71 | 146 | 4.0 | 6.0 | 0.00 | 0.00 | 0.00 | ||
| 20260902073538 | 71 | 150 | 6.0 | 9.0 | 0.00 | 0.00 | 0.00 | ||
| 20260902073130 | 70 | 158 | 7.0 | 10.0 | 0.00 | 0.00 | 0.00 | ||
| 20260902072728 | 70 | 156 | 5.0 | 8.0 | 0.00 | 0.00 | 0.00 | ||
| 20260902072326 | 70 | 162 | 5.0 | 8.0 | 0.00 | 0.00 | 0.00 | ||
| 20260902071925 | 70 | 156 | 7.0 | 10.0 | 0.00 | 0.00 | 0.00 | ||
| 20260902071523 | 69 | 152 | 7.0 | 9.0 | 0.00 | 0.00 | 0.00 | ||
| 20260902071122 | 70 | 152 | 6.0 | 9.0 | 0.00 | 0.00 | 0.00 | ||
| 20260902070720 | 69 | 152 | 6.0 | 10.0 | 0.00 | 0.00 | 0.00 | ||
| 20260902070318 | 70 | 141 | 5.0 | 9.0 | 0.00 | 0.00 | 0.00 | ||
| 20260902065917 | 69 | 144 | 7.0 | 9.0 | 0.00 | 0.00 | 0.00 | ||
| 20260902065515 | 70 | 145 | 6.0 | 9.0 | 0.00 | 0.00 | 0.00 | ||
| 20260902065107 | 70 | 143 | 5.0 | 9.0 | 0.00 | 0.00 | 0.00 | ||
| 20260902064704 | 70 | 156 | 6.0 | 10.0 | 0.00 | 0.00 | 0.00 | ||
| 20260902064303 | 71 | 157 | 4.0 | 6.0 | 0.00 | 0.00 | 0.00 | ||
| 20260902063902 | 70 | 157 | 5.0 | 8.0 | 0.00 | 0.00 | 0.00 | ||
| 20260902063500 | 70 | 157 | 3.0 | 4.0 | 0.00 | 0.00 | 0.00 | ||
| 20260902063058 | 68 | 157 | 3.0 | 5.0 | 0.00 | 0.00 | 0.00 | ||
| 20260902062656 | 68 | 143 | 4.0 | 7.0 | 0.00 | 0.00 | 0.00 | ||
| 20260902062255 | 67 | 145 | 4.0 | 10.0 | 0.00 | 0.00 | 0.00 | ||
| 20260902061853 | 67 | 152 | 5.0 | 7.0 | 0.00 | 0.00 | 0.00 | ||
| 20260902061450 | 66 | 145 | 3.0 | 7.0 | 0.00 | 0.00 | 0.00 | ||
| 20260902061042 | 66 | 148 | 4.0 | 7.0 | 0.00 | 0.00 | 0.00 | ||
| 20260902060640 | 66 | 146 | 2.0 | 5.0 | 0.00 | 0.00 | 0.00 | ||
| 20260902060239 | 67 | 149 | 4.0 | 6.0 | 0.00 | 0.00 | 0.00 | ||
| 20260902055838 | 66 | 139 | 4.0 | 8.0 | 0.00 | 0.00 | 0.00 | ||
| 20260902055435 | 66 | 138 | 4.0 | 7.0 | 0.00 | 0.00 | 0.00 | ||
| 20260902055035 | 66 | 143 | 3.0 | 5.0 | 0.00 | 0.00 | 0.00 | ||
| 20260902054633 | 66 | 157 | 3.0 | 6.0 | 0.00 | 0.00 | 0.00 | ||
| 20260902054232 | 66 | 135 | 2.0 | 3.0 | 0.00 | 0.00 | 0.00 | ||
| 20260902053830 | 65 | 147 | 3.0 | 5.0 | 0.00 | 0.00 | 0.00 | ||
| 20260902053428 | 65 | 146 | 5.0 | 9.0 | 0.00 | 0.00 | 0.00 | ||
| 20260902053020 | 64 | 151 | 5.0 | 6.0 | 0.00 | 0.00 | 0.00 | ||
| 20260902052618 | 65 | 142 | 6.0 | 10.0 | 0.00 | 0.00 | 0.00 | ||
| 20260902052216 | 64 | 139 | 6.0 | 10.0 | 0.00 | 0.00 | 0.00 | ||
| 20260902051815 | 64 | 141 | 5.0 | 8.0 | 0.00 | 0.00 | 0.00 | ||
| 20260902051413 | 64 | 146 | 4.0 | 8.0 | 0.00 | 0.00 | 0.00 | ||
| 20260902051012 | 64 | 137 | 6.0 | 10.0 | 0.00 | 0.00 | 0.00 | ||
| 20260902050609 | 65 | 139 | 5.0 | 9.0 | 0.00 | 0.00 | 0.00 | ||
| 20260902050208 | 64 | 144 | 6.0 | 9.0 | 0.00 | 0.00 | 0.00 | ||
| 20260902045807 | 64 | 136 | 5.0 | 8.0 | 0.00 | 0.00 | 0.00 | ||
| 20260902045405 | 64 | 124 | 4.0 | 6.0 | 0.00 | 0.00 | 0.00 | ||
| 20260902044957 | 64 | 144 | 5.0 | 8.0 | 0.00 | 0.00 | 0.00 | ||
| 20260902044554 | 63 | 144 | 5.0 | 7.0 | 0.00 | 0.00 | 0.00 | ||
| 20260902044153 | 63 | 154 | 4.0 | 8.0 | 0.00 | 0.00 | 0.00 | ||
| 20260902043752 | 63 | 143 | 5.0 | 10.0 | 0.00 | 0.00 | 0.00 | ||
| 20260902043350 | 63 | 151 | 8.0 | 14.0 | 0.00 | 0.00 | 0.00 | ||
| 20260902042947 | 62 | 156 | 6.0 | 9.0 | 0.00 | 0.00 | 0.00 | ||
| 20260902042545 | 62 | 153 | 6.0 | 10.0 | 0.00 | 0.00 | 0.00 | ||
| 20260902042144 | 63 | 150 | 8.0 | 10.0 | 0.00 | 0.00 | 0.00 | ||
| 20260902041742 | 62 | 148 | 7.0 | 9.0 | 0.00 | 0.00 | 0.00 | ||
| 20260902041339 | 62 | 148 | 5.0 | 8.0 | 0.00 | 0.00 | 0.00 | ||
| 20260902040932 | 62 | 153 | 7.0 | 10.0 | 0.00 | 0.00 | 0.00 | ||
| 20260902040530 | 62 | 151 | 6.0 | 10.0 | 0.00 | 0.00 | 0.00 | ||
| 20260902040129 | 60 | 156 | 6.0 | 9.0 | 0.00 | 0.00 | 0.00 | ||
| 20260902035325 | 62 | 153 | 6.0 | 8.0 | 0.00 | 0.00 | 0.00 | ||
| 20260902034924 | 62 | 153 | 7.0 | 9.0 | 0.00 | 0.00 | 0.00 | ||
| 20260902034521 | 63 | 151 | 6.0 | 8.0 | 0.00 | 0.00 | 0.00 | ||
| 20260902034120 | 62 | 152 | 6.0 | 9.0 | 0.00 | 0.00 | 0.00 | ||
| 20260902033718 | 63 | 133 | 5.0 | 8.0 | 0.00 | 0.00 | 0.00 | ||
| 20260902033316 | 63 | 155 | 6.0 | 9.0 | 0.00 | 0.00 | 0.00 | ||
| 20260902032908 | 63 | 150 | 6.0 | 9.0 | 0.00 | 0.00 | 0.00 | ||
| 20260902032506 | 62 | 148 | 5.0 | 9.0 | 0.00 | 0.00 | 0.00 | ||
| 20260902032104 | 62 | 153 | 5.0 | 7.0 | 0.00 | 0.00 | 0.00 | ||
| 20260902031703 | 62 | 151 | 8.0 | 10.0 | 0.00 | 0.00 | 0.00 | ||
| 20260902031301 | 63 | 158 | 7.0 | 9.0 | 0.00 | 0.00 | 0.00 | ||
| 20260902030901 | 63 | 151 | 6.0 | 8.0 | 0.00 | 0.00 | 0.00 | ||
| 20260902030457 | 63 | 147 | 5.0 | 8.0 | 0.00 | 0.00 | 0.00 | ||
| 20260902030056 | 63 | 144 | 6.0 | 10.0 | 0.00 | 0.00 | 0.00 | ||
| 20260902025655 | 62 | 132 | 6.0 | 9.0 | 0.00 | 0.00 | 0.00 | ||
| 20260902025254 | 62 | 142 | 6.0 | 9.0 | 0.00 | 0.00 | 0.00 | ||
| 20260902024844 | 63 | 148 | 7.0 | 9.0 | 0.00 | 0.00 | 0.00 | ||
| 20260902024443 | 62 | 152 | 6.0 | 8.0 | 0.00 | 0.00 | 0.00 | ||
| 20260902024042 | 62 | 151 | 7.0 | 9.0 | 0.00 | 0.00 | 0.00 | ||
| 20260902023641 | 62 | 152 | 6.0 | 10.0 | 0.00 | 0.00 | 0.00 | ||
| 20260902023239 | 62 | 151 | 6.0 | 10.0 | 0.00 | 0.00 | 0.00 | ||
| 20260902022837 | 62 | 145 | 7.0 | 10.0 | 0.00 | 0.00 | 0.00 | ||
| 20260902022435 | 62 | 155 | 4.0 | 8.0 | 0.00 | 0.00 | 0.00 | ||
| 20260902022034 | 62 | 146 | 5.0 | 8.0 | 0.00 | 0.00 | 0.00 | ||
| 20260902021633 | 62 | 146 | 3.0 | 6.0 | 0.00 | 0.00 | 0.00 | ||
| 20260902021230 | 61 | 157 | 4.0 | 6.0 | 0.00 | 0.00 | 0.00 | ||
| 20260902020822 | 61 | 159 | 5.0 | 8.0 | 0.00 | 0.00 | 0.00 | ||
| 20260902020420 | 62 | 153 | 5.0 | 7.0 | 0.00 | 0.00 | 0.00 | ||
| 20260902020019 | 61 | 152 | 6.0 | 8.0 | 0.00 | 0.00 | 0.00 | ||
| 20260902015617 | 62 | 153 | 4.0 | 8.0 | 0.00 | 0.00 | 0.00 | ||
| 20260902015215 | 62 | 150 | 6.0 | 8.0 | 0.00 | 0.00 | 0.00 | ||
| 20260902014814 | 62 | 151 | 6.0 | 8.0 | 0.00 | 0.00 | 0.00 | ||
| 20260902014412 | 62 | 157 | 7.0 | 10.0 | 0.00 | 0.00 | 0.00 | ||
| 20260902014010 | 62 | 156 | 5.0 | 8.0 | 0.00 | 0.00 | 0.00 | ||
| 20260902013609 | 62 | 158 | 6.0 | 9.0 | 0.00 | 0.00 | 0.00 | ||
| 20260902013207 | 63 | 145 | 6.0 | 9.0 | 0.00 | 0.00 | 0.00 | ||
| 20260902012759 | 63 | 148 | 6.0 | 9.0 | 0.00 | 0.00 | 0.00 | ||
| 20260902012358 | 62 | 140 | 5.0 | 9.0 | 0.00 | 0.00 | 0.00 | ||
| 20260902011955 | 62 | 153 | 4.0 | 8.0 | 0.00 | 0.00 | 0.00 | ||
| 20260902011555 | 62 | 150 | 5.0 | 7.0 | 0.00 | 0.00 | 0.00 | ||
| 20260902011153 | 62 | 154 | 5.0 | 7.0 | 0.00 | 0.00 | 0.00 | ||
| 20260902010752 | 63 | 158 | 5.0 | 8.0 | 0.00 | 0.00 | 0.00 | ||
| 20260902010349 | 63 | 160 | 7.0 | 9.0 | 0.00 | 0.00 | 0.00 | ||
| 20260902005948 | 63 | 158 | 5.0 | 8.0 | 0.00 | 0.00 | 0.00 | ||
| 20260902005547 | 62 | 153 | 6.0 | 8.0 | 0.00 | 0.00 | 0.00 | ||
| 20260902005145 | 63 | 152 | 3.0 | 6.0 | 0.00 | 0.00 | 0.00 | ||
| 20260902004736 | 63 | 144 | 5.0 | 8.0 | 0.00 | 0.00 | 0.00 | ||
| 20260902004334 | 63 | 157 | 6.0 | 9.0 | 0.00 | 0.00 | 0.00 | ||
| 20260902003933 | 62 | 155 | 4.0 | 7.0 | 0.00 | 0.00 | 0.00 | ||
| 20260902003532 | 63 | 156 | 7.0 | 9.0 | 0.00 | 0.00 | 0.00 | ||
| 20260902003129 | 62 | 156 | 5.0 | 9.0 | 0.00 | 0.00 | 0.00 | ||
| 20260902002728 | 62 | 151 | 6.0 | 9.0 | 0.00 | 0.00 | 0.00 | ||
| 20260902002326 | 62 | 153 | 5.0 | 7.0 | 0.00 | 0.00 | 0.00 | ||
| 20260902001925 | 62 | 161 | 6.0 | 8.0 | 0.00 | 0.00 | 0.00 | ||
| 20260902001524 | 62 | 143 | 5.0 | 8.0 | 0.00 | 0.00 | 0.00 | ||
| 20260902001121 | 63 | 150 | 4.0 | 6.0 | 0.00 | 0.00 | 0.00 | ||
| 20260902000713 | 62 | 143 | 4.0 | 6.0 | 0.00 | 0.00 | 0.00 | ||
| 20260902000312 | 63 | 150 | 4.0 | 6.0 | 0.00 | 0.00 | 0.00 | ||
| 20260901235508 | 63 | 158 | 6.0 | 8.0 | 0.00 | 0.00 | 0.00 | ||
| 20260901235106 | 62 | 159 | 4.0 | 9.0 | 0.00 | 0.00 | 0.00 | ||
| 20260901234705 | 63 | 157 | 4.0 | 8.0 | 0.00 | 0.00 | 0.00 | ||
| 20260901234303 | 63 | 153 | 6.0 | 10.0 | 0.00 | 0.00 | 0.00 | ||
| 20260901233901 | 63 | 157 | 4.0 | 7.0 | 0.00 | 0.00 | 0.00 | ||
| 20260901233500 | 62 | 162 | 4.0 | 6.0 | 0.00 | 0.00 | 0.00 | ||
| 20260901233058 | 62 | 162 | 5.0 | 8.0 | 0.00 | 0.00 | 0.00 | ||
| 20260901232651 | 63 | 162 | 4.0 | 6.0 | 0.00 | 0.00 | 0.00 | ||
| 20260901232247 | 62 | 161 | 5.0 | 7.0 | 0.00 | 0.00 | 0.00 | ||
| 20260901231847 | 62 | 156 | 3.0 | 5.0 | 0.00 | 0.00 | 0.00 | ||
| 20260901231446 | 62 | 158 | 4.0 | 7.0 | 0.00 | 0.00 | 0.00 | ||
| 20260901231044 | 62 | 157 | 4.0 | 5.0 | 0.00 | 0.00 | 0.00 | ||
| 20260901230643 | 63 | 154 | 4.0 | 6.0 | 0.00 | 0.00 | 0.00 | ||
| 20260901230240 | 63 | 157 | 3.0 | 4.0 | 0.00 | 0.00 | 0.00 | ||
| 20260901225839 | 63 | 157 | 3.0 | 6.0 | 0.00 | 0.00 | 0.00 | ||
| 20260901225438 | 64 | 145 | 3.0 | 5.0 | 0.00 | 0.00 | 0.00 | ||
| 20260901225036 | 63 | 145 | 3.0 | 4.0 | 0.00 | 0.00 | 0.00 | ||
| 20260901224627 | 63 | 138 | 4.0 | 6.0 | 0.00 | 0.00 | 0.00 | ||
| 20260901224225 | 63 | 147 | 6.0 | 7.0 | 0.00 | 0.00 | 0.00 | ||
| 20260901223824 | 64 | 153 | 4.0 | 8.0 | 0.00 | 0.00 | 0.00 | ||
| 20260901223423 | 63 | 157 | 4.0 | 6.0 | 0.00 | 0.00 | 0.00 | ||
| 20260901223020 | 63 | 157 | 5.0 | 7.0 | 0.00 | 0.00 | 0.00 | ||
| 20260901222217 | 63 | 157 | 3.0 | 5.0 | 0.00 | 0.00 | 0.00 | ||
| 20260901221816 | 64 | 144 | 4.0 | 6.0 | 0.00 | 0.00 | 0.00 | ||
| 20260901221414 | 65 | 133 | 4.0 | 7.0 | 0.00 | 0.00 | 0.00 | ||
| 20260901221014 | 64 | 124 | 3.0 | 6.0 | 0.00 | 0.00 | 0.00 | ||
| 20260901220604 | 63 | 133 | 3.0 | 5.0 | 0.00 | 0.00 | 0.00 | ||
| 20260901220203 | 63 | 135 | 3.0 | 5.0 | 0.00 | 0.00 | 0.00 | ||
| 20260901215802 | 63 | 138 | 4.0 | 5.0 | 0.00 | 0.00 | 0.00 | ||
| 20260901215359 | 64 | 141 | 3.0 | 5.0 | 0.00 | 0.00 | 0.00 | ||
| 20260901214958 | 63 | 144 | 4.0 | 6.0 | 0.00 | 0.00 | 0.00 | ||
| 20260901214557 | 64 | 140 | 3.0 | 4.0 | 0.00 | 0.00 | 0.00 | ||
| 20260901214154 | 63 | 135 | 3.0 | 4.0 | 0.00 | 0.00 | 0.00 | ||
| 20260901213752 | 63 | 135 | 3.0 | 5.0 | 0.00 | 0.00 | 0.00 | ||
| 20260901213351 | 63 | 157 | 3.0 | 5.0 | 0.00 | 0.00 | 0.00 | ||
| 20260901212949 | 63 | 157 | 3.0 | 5.0 | 0.00 | 0.00 | 0.00 | ||
| 20260901212541 | 64 | 157 | 3.0 | 5.0 | 0.00 | 0.00 | 0.00 | ||
| 20260901212138 | 63 | 157 | 3.0 | 5.0 | 0.00 | 0.00 | 0.00 | ||
| 20260901211737 | 63 | 159 | 4.0 | 5.0 | 0.00 | 0.00 | 0.00 | ||
| 20260901211336 | 64 | 143 | 3.0 | 6.0 | 0.00 | 0.00 | 0.00 | ||
| 20260901210935 | 64 | 147 | 3.0 | 4.0 | 0.00 | 0.00 | 0.00 | ||
| 20260901210532 | 63 | 157 | 3.0 | 5.0 | 0.00 | 0.00 | 0.00 | ||
| 20260901210131 | 65 | 140 | 4.0 | 6.0 | 0.00 | 0.00 | 0.00 | ||
| 20260901205730 | 65 | 147 | 3.0 | 5.0 | 0.00 | 0.00 | 0.00 | ||
| 20260901205329 | 65 | 147 | 4.0 | 7.0 | 0.00 | 0.00 | 0.00 | ||
| 20260901204927 | 65 | 157 | 4.0 | 6.0 | 0.00 | 0.00 | 0.00 | ||
| 20260901204518 | 63 | 157 | 3.0 | 5.0 | 0.00 | 0.00 | 0.00 | ||
| 20260901204115 | 63 | 143 | 2.0 | 4.0 | 0.00 | 0.00 | 0.00 | ||
| 20260901203714 | 64 | 153 | 3.0 | 6.0 | 0.00 | 0.00 | 0.00 | ||
| 20260901203313 | 64 | 139 | 2.0 | 4.0 | 0.00 | 0.00 | 0.00 | ||
| 20260901202910 | 64 | 157 | 3.0 | 6.0 | 0.00 | 0.00 | 0.00 | ||
| 20260901202509 | 64 | 135 | 2.0 | 3.0 | 0.00 | 0.00 | 0.00 | ||
| 20260901202106 | 65 | 157 | 2.0 | 3.0 | 0.00 | 0.00 | 0.00 | ||
| 20260901201705 | 65 | 143 | 3.0 | 5.0 | 0.00 | 0.00 | 0.00 | ||
| 20260901201303 | 65 | 153 | 3.0 | 5.0 | 0.00 | 0.00 | 0.00 | ||
| 20260901200901 | 65 | 136 | 3.0 | 4.0 | 0.00 | 0.00 | 0.00 | ||
| 20260901200453 | 64 | 135 | 2.0 | 3.0 | 0.00 | 0.00 | 0.00 | ||
| 20260901200051 | 65 | 138 | 2.0 | 4.0 | 0.00 | 0.00 | 0.00 | ||
| 20260901195649 | 64 | 135 | 2.0 | 3.0 | 0.00 | 0.00 | 0.00 | ||
| 20260901195248 | 63 | 197 | 1.0 | 2.0 | 0.00 | 0.00 | 0.00 | ||
| 20260901194846 | 63 | 202 | 1.0 | 2.0 | 0.00 | 0.00 | 0.00 | ||
| 20260901194445 | 63 | 202 | 1.0 | 2.0 | 0.00 | 0.00 | 0.00 | ||
| 20260901194043 | 63 | 202 | 1.0 | 2.0 | 0.00 | 0.00 | 0.00 | ||
| 20260901193641 | 64 | 213 | 2.0 | 4.0 | 0.00 | 0.00 | 0.00 | ||
| 20260901193240 | 64 | 225 | 2.0 | 2.0 | 0.00 | 0.00 | 0.00 | ||
| 20260901192839 | 63 | 225 | 0.0 | 1.0 | 0.00 | 0.00 | 0.00 | ||
| 20260901192431 | 63 | 225 | 1.0 | 2.0 | 0.00 | 0.00 | 0.00 | ||
| 20260901192027 | 64 | 225 | 1.0 | 2.0 | 0.00 | 0.00 | 0.00 | ||
| 20260901191627 | 65 | 237 | 2.0 | 4.0 | 0.00 | 0.00 | 0.00 | ||
| 20260901191226 | 65 | 248 | 3.0 | 3.0 | 0.00 | 0.00 | 0.00 | ||
| 20260901190824 | 64 | 292 | 2.0 | 2.0 | 0.00 | 0.00 | 0.00 | ||
| 20260901190422 | 64 | 292 | 0.0 | 1.0 | 0.00 | 0.00 | 0.00 | ||
| 20260901190020 | 65 | 292 | 0.0 | 2.0 | 0.00 | 0.00 | 0.00 | ||
| 20260901185619 | 65 | 292 | 0.0 | 1.0 | 0.00 | 0.00 | 0.00 | ||
| 20260901185218 | 65 | 292 | 1.0 | 2.0 | 0.00 | 0.00 | 0.00 | ||
| 20260901184815 | 65 | 292 | 1.0 | 2.0 | 0.00 | 0.00 | 0.00 | ||
| 20260901184407 | 65 | 292 | 1.0 | 2.0 | 0.00 | 0.00 | 0.00 | ||
| 20260901184005 | 65 | 292 | 1.0 | 2.0 | 0.00 | 0.00 | 0.00 | ||
| 20260901183604 | 65 | 298 | 1.0 | 2.0 | 0.00 | 0.00 | 0.00 | ||
| 20260901183203 | 65 | 315 | 0.0 | 1.0 | 0.00 | 0.00 | 0.00 | ||
| 20260901182800 | 65 | 315 | 0.0 | 0.0 | 0.00 | 0.00 | 0.00 | ||
| 20260901182359 | 65 | 315 | 0.0 | 0.0 | 0.00 | 0.00 | 0.00 | ||
| 20260901181957 | 67 | 315 | 0.0 | 0.0 | 0.00 | 0.00 | 0.00 | ||
| 20260901181556 | 68 | 315 | 0.0 | 0.0 | 0.00 | 0.00 | 0.00 | ||
| 20260901181154 | 68 | 315 | 0.0 | 0.0 | 0.00 | 0.00 | 0.00 | ||
| 20260901180752 | 68 | 313 | 0.0 | 2.0 | 0.00 | 0.00 | 0.00 | ||
| 20260901180344 | 68 | 315 | 0.0 | 0.0 | 0.00 | 0.00 | 0.00 | ||
| 20260901175942 | 67 | 315 | 0.0 | 0.0 | 0.00 | 0.00 | 0.00 | ||
| 20260901175540 | 67 | 315 | 0.0 | 0.0 | 0.00 | 0.00 | 0.00 | ||
| 20260901175139 | 68 | 315 | 0.0 | 1.0 | 0.00 | 0.00 | 0.00 | ||
| 20260901174737 | 68 | 315 | 1.0 | 2.0 | 0.00 | 0.00 | 0.00 | ||
| 20260901174336 | 68 | 315 | 1.0 | 2.0 | 0.00 | 0.00 | 0.00 | ||
| 20260901173532 | 69 | 315 | 1.0 | 2.0 | 0.00 | 0.00 | 0.00 | ||
| 20260901173414 | 69 | 315 | 0.0 | 2.0 | 0.00 | 0.00 | 0.00 | ||
| 20260901173131 | 69 | 315 | 0.0 | 2.0 | 0.00 | 0.00 | 0.00 | ||
| 20260901172729 | 70 | 315 | 1.0 | 2.0 | 0.00 | 0.00 | 0.00 | ||
| 20260901171918 | 70 | 315 | 0.0 | 2.0 | 0.00 | 0.00 | 0.00 | ||
| 20260901171517 | 71 | 293 | 2.0 | 4.0 | 0.00 | 0.00 | 0.00 | ||
| 20260901171116 | 71 | 292 | 1.0 | 2.0 | 0.00 | 0.00 | 0.00 | ||
| 20260901170714 | 71 | 292 | 1.0 | 3.0 | 0.00 | 0.00 | 0.00 | ||
| 20260901170312 | 71 | 295 | 2.0 | 3.0 | 0.00 | 0.00 | 0.00 | ||
| 20260901165911 | 71 | 305 | 3.0 | 5.0 | 0.00 | 0.00 | 0.00 | ||
| 20260901165510 | 72 | 292 | 3.0 | 6.0 | 0.00 | 0.00 | 0.00 | ||
| 20260901165109 | 73 | 292 | 3.0 | 4.0 | 0.00 | 0.00 | 0.00 | ||
| 20260901164706 | 74 | 292 | 4.0 | 5.0 | 0.00 | 0.00 | 0.00 | ||
| 20260901164258 | 75 | 307 | 4.0 | 6.0 | 0.00 | 0.00 | 0.00 | ||
| 20260901163856 | 77 | 315 | 2.0 | 4.0 | 0.00 | 0.00 | 0.00 | ||
| 20260901163455 | 76 | 298 | 3.0 | 6.0 | 0.00 | 0.00 | 0.00 | ||
| 20260901163053 | 77 | 295 | 5.0 | 7.0 | 0.00 | 0.00 | 0.00 | ||
| 20260901162651 | 77 | 301 | 4.0 | 7.0 | 0.00 | 0.00 | 0.00 | ||
| 20260901162250 | 77 | 315 | 2.0 | 4.0 | 0.00 | 0.00 | 0.00 | ||
| 20260901161848 | 75 | 286 | 4.0 | 5.0 | 0.00 | 0.00 | 0.00 | ||
| 20260901161447 | 74 | 273 | 5.0 | 8.0 | 0.00 | 0.00 | 0.00 | ||
| 20260901161045 | 74 | 292 | 5.0 | 8.0 | 0.00 | 0.00 | 0.00 | ||
| 20260901160643 | 74 | 292 | 4.0 | 7.0 | 0.00 | 0.00 | 0.00 | ||
| 20260901160235 | 73 | 301 | 3.0 | 6.0 | 0.00 | 0.00 | 0.00 | ||
| 20260901155833 | 73 | 287 | 4.0 | 6.0 | 0.00 | 0.00 | 0.00 | ||
| 20260901155431 | 73 | 292 | 3.0 | 4.0 | 0.00 | 0.00 | 0.00 | ||
| 20260901155030 | 73 | 277 | 2.0 | 3.0 | 0.00 | 0.00 | 0.00 | ||
| 20260901154628 | 72 | 289 | 3.0 | 6.0 | 0.00 | 0.00 | 0.00 | ||
| 20260901154228 | 73 | 290 | 3.0 | 5.0 | 0.00 | 0.00 | 0.00 | ||
| 20260901153824 | 72 | 304 | 2.0 | 5.0 | 0.00 | 0.00 | 0.00 | ||
| 20260901153423 | 73 | 298 | 5.0 | 8.0 | 0.00 | 0.00 | 0.00 | ||
| 20260901153022 | 73 | 297 | 4.0 | 6.0 | 0.00 | 0.00 | 0.00 | ||
| 20260901152621 | 73 | 278 | 4.0 | 6.0 | 0.00 | 0.00 | 0.00 | ||
| 20260901152211 | 73 | 302 | 3.0 | 5.0 | 0.00 | 0.00 | 0.00 | ||
| 20260901151810 | 72 | 296 | 5.0 | 9.0 | 0.00 | 0.00 | 0.00 | ||
| 20260901151409 | 72 | 297 | 5.0 | 8.0 | 0.00 | 0.00 | 0.00 | ||
| 20260901151008 | 72 | 301 | 5.0 | 9.0 | 0.00 | 0.00 | 0.00 | ||
| 20260901150606 | 73 | 291 | 5.0 | 8.0 | 0.00 | 0.00 | 0.00 | ||
| 20260901150204 | 72 | 314 | 3.0 | 5.0 | 0.00 | 0.00 | 0.00 | ||
| 20260901145802 | 72 | 308 | 4.0 | 6.0 | 0.00 | 0.00 | 0.00 | ||
| 20260901145401 | 72 | 295 | 5.0 | 9.0 | 0.00 | 0.00 | 0.00 | ||
| 20260901145000 | 73 | 298 | 3.0 | 7.0 | 0.00 | 0.00 | 0.00 | ||
| 20260901144557 | 73 | 296 | 3.0 | 4.0 | 0.00 | 0.00 | 0.00 | ||
| 20260901144149 | 72 | 313 | 5.0 | 8.0 | 0.00 | 0.00 | 0.00 | ||
| 20260901143747 | 73 | 289 | 3.0 | 5.0 | 0.00 | 0.00 | 0.00 | ||
| 20260901143346 | 73 | 279 | 2.0 | 4.0 | 0.00 | 0.00 | 0.00 | ||
| 20260901142944 | 73 | 289 | 5.0 | 9.0 | 0.00 | 0.00 | 0.00 | ||
| 20260901142542 | 73 | 309 | 4.0 | 6.0 | 0.00 | 0.00 | 0.00 | ||
| 20260901142141 | 73 | 302 | 5.0 | 7.0 | 0.00 | 0.00 | 0.00 | ||
| 20260901141739 | 73 | 298 | 4.0 | 6.0 | 0.00 | 0.00 | 0.00 | ||
| 20260901141337 | 73 | 292 | 4.0 | 8.0 | 0.00 | 0.00 | 0.00 | ||
| 20260901140936 | 73 | 303 | 3.0 | 5.0 | 0.00 | 0.00 | 0.00 | ||
| 20260901140534 | 73 | 294 | 5.0 | 9.0 | 0.00 | 0.00 | 0.00 | ||
| 20260901140126 | 73 | 298 | 4.0 | 7.0 | 0.00 | 0.00 | 0.00 | ||
| 20260901135725 | 74 | 270 | 2.0 | 5.0 | 0.00 | 0.00 | 0.00 | ||
| 20260901135322 | 73 | 298 | 5.0 | 9.0 | 0.00 | 0.00 | 0.00 | ||
| 20260901134922 | 73 | 306 | 4.0 | 7.0 | 0.00 | 0.00 | 0.00 | ||
| 20260901134520 | 74 | 255 | 8.0 | 11.0 | 0.00 | 0.00 | 0.00 | ||
| 20260901134119 | 75 | 277 | 4.0 | 6.0 | 0.00 | 0.00 | 0.00 | ||
| 20260901133716 | 75 | 266 | 5.0 | 10.0 | 0.00 | 0.00 | 0.00 | ||
| 20260901133315 | 74 | 279 | 6.0 | 8.0 | 0.00 | 0.00 | 0.00 | ||
| 20260901132914 | 75 | 256 | 5.0 | 10.0 | 0.00 | 0.00 | 0.00 | ||
| 20260901132512 | 74 | 257 | 7.0 | 10.0 | 0.00 | 0.00 | 0.00 | ||
| 20260901132103 | 75 | 277 | 7.0 | 9.0 | 0.00 | 0.00 | 0.00 | ||
| 20260901131700 | 75 | 256 | 8.0 | 13.0 | 0.00 | 0.00 | 0.00 | ||
| 20260901131259 | 75 | 268 | 10.0 | 13.0 | 0.00 | 0.00 | 0.00 | ||
| 20260901130858 | 76 | 250 | 7.0 | 10.0 | 0.00 | 0.00 | 0.00 | ||
| 20260901130454 | 75 | 261 | 8.0 | 12.0 | 0.00 | 0.00 | 0.00 | ||
| 20260901130053 | 76 | 277 | 4.0 | 9.0 | 0.00 | 0.00 | 0.00 | ||
| 20260901125651 | 75 | 231 | 6.0 | 9.0 | 0.00 | 0.00 | 0.00 | ||
| 20260901125250 | 75 | 261 | 9.0 | 12.0 | 0.00 | 0.00 | 0.00 | ||
| 20260901124849 | 76 | 243 | 7.0 | 11.0 | 0.00 | 0.00 | 0.00 | ||
| 20260901124446 | 76 | 261 | 11.0 | 15.0 | 0.00 | 0.00 | 0.00 | ||
| 20260901124038 | 76 | 256 | 8.0 | 14.0 | 0.00 | 0.00 | 0.00 | ||
| 20260901123636 | 76 | 267 | 8.0 | 12.0 | 0.00 | 0.00 | 0.00 | ||
| 20260901123235 | 76 | 240 | 9.0 | 14.0 | 0.00 | 0.00 | 0.00 | ||
| 20260901122431 | 75 | 250 | 9.0 | 15.0 | 0.00 | 0.00 | 0.00 | ||
| 20260901121628 | 77 | 238 | 8.0 | 15.0 | 0.00 | 0.00 | 0.00 | ||
| 20260901121226 | 77 | 241 | 8.0 | 14.0 | 0.00 | 0.00 | 0.00 | ||
| 20260901120825 | 75 | 244 | 7.0 | 11.0 | 0.00 | 0.00 | 0.00 | ||
| 20260901120423 | 75 | 231 | 8.0 | 15.0 | 0.00 | 0.00 | 0.00 | ||
| 20260901120015 | 75 | 218 | 9.0 | 14.0 | 0.00 | 0.00 | 0.00 | ||
| 20260901115612 | 75 | 240 | 11.0 | 16.0 | 0.00 | 0.00 | 0.00 | ||
| 20260901115211 | 75 | 233 | 6.0 | 10.0 | 0.00 | 0.00 | 0.00 | ||
| 20260901114810 | 75 | 250 | 9.0 | 15.0 | 0.00 | 0.00 | 0.00 | ||
| 20260901114409 | 76 | 233 | 10.0 | 12.0 | 0.00 | 0.00 | 0.00 | ||
| 20260901114008 | 75 | 257 | 9.0 | 15.0 | 0.00 | 0.00 | 0.00 | ||
| 20260901113605 | 74 | 263 | 10.0 | 16.0 | 0.00 | 0.00 | 0.00 | ||
| 20260901113204 | 76 | 254 | 9.0 | 13.0 | 0.00 | 0.00 | 0.00 | ||
| 20260901112803 | 76 | 220 | 9.0 | 12.0 | 0.00 | 0.00 | 0.00 | ||
| 20260901112401 | 76 | 235 | 6.0 | 10.0 | 0.00 | 0.00 | 0.00 | ||
| 20260901111952 | 76 | 242 | 5.0 | 12.0 | 0.00 | 0.00 | 0.00 | ||
| 20260901111550 | 74 | 238 | 7.0 | 11.0 | 0.00 | 0.00 | 0.00 | ||
| 20260901111149 | 74 | 237 | 8.0 | 11.0 | 0.00 | 0.00 | 0.00 | ||
| 20260901110748 | 75 | 218 | 10.0 | 20.0 | 0.00 | 0.00 | 0.00 | ||
| 20260901110345 | 74 | 223 | 8.0 | 13.0 | 0.00 | 0.00 | 0.00 |